PEGASUS DEB, 24091

Orbit data source: Space-Track

PEGASUS DEB, 24091 is space debris in LEO originally from a launch on Thu, 19 May 1994 UTC launched from the Air Force Western Test Range (AFWTR). Debris objects in space refer to the collection of defunct objects orbiting the Earth. Examples of debris include non-operational satellites, rocket bodies, and fragments generated from explosions, collisions, or faulty payload assembly.

Loading next visibility...
Identifier
24091, 1994-029EN
Orbit
LEO
Country
Flag of USUS
Related business
Manufacturer
Unknown
Mission
Spacecraft
Bus & Motor
Unknown
Mass
Unknown
Launch date (UTC)
1994-05-19 (32 years ago)
Launch vehicle
Unknown
Launch site
Air Force Western Test Range (AFWTR)
Object type
Payload
Rocket body
Debris
Shape & HBR
Unknown shape, 0.2 m
Radar Cross Section
Small (<0.1 m²)

Expand to show TLE details & history
Last TLE update: 7 hours ago

TLE from 7 hours ago
0 PEGASUS DEB
1 24091U 94029EN  26122.09691389  .00005611  00000-0  36091-3 0  9993
2 24091  81.9920  63.9790 0061677 345.7096  27.4442 15.06615589623350
Epoch: 2026-05-02T02:19Z
TLE epoch observation values (Epoch: 2026-05-02T02:19:33.360Z)
Latitude
13.31184°
Longitude
170.96731°
Altitude
510.997 km
Speed
7.63 km/s
True Right ascension
04h 23m 30s
True Declination
13° 13' 56"
Sunlit
Object was in daylight at epoch
Visualization orbit readout
Latitude
Unknown
Longitude
Unknown
Altitude
Unknown
Speed
Unknown
Apparent Right ascension
Unknown
Apparent Declination
Unknown
Sunlit
N/A
Visualization observer readout
Local Sidereal Time
17:24:44
Azimuth
Unknown
Elevation
Unknown
Doppler factor
Unknown
Orbital elements
Apogee altitude
586.252 km
Perigee altitude
500.87 km
Semi-major axis
6,921.698 km
Eccentricity
0.00617
Inclination
81.992°
RAAN
63.979°
Arg. of periapsis
345.7096°
True anomaly
27.77218°
Mean anomaly
27.4442°
Eccentric anomaly
27.60796°
Mean motion
3.76898 °/min
Orbital period
95.52 mins
BSTAR
0.00036091
Loading maneuver chart data...
Computing Atmospheric mass density...

Documentation

Showing up to 5 results
|